This demonstration page uses our WeatherBlox Daily Observations layout. Learn more.

Left ArrowRight Arrow

Hourly Observations for October 10, 2015

Temp ( °F °C ) Dew Point ( °F °C ) Humidity (%) Winds ( mph kmh ) Pressure ( in mb ) Visibility ( mi km ) Precip ( " mm )
12:53 am 00:53 Clear 61 16.1 42 5.6 50 50 W 13 20 29.76 1008 10 16 0.00 0.00
1:53 am 01:53 Clear 61 16.1 43 6.1 52 52 SW 18 30 29.75 1007 10 16 0.00 0.00
2:53 am 02:53 Clear 63 17.2 42 5.6 47 47 SW 16 26 29.74 1007 10 16 0.00 0.00
3:53 am 03:53 Clear 60 15.6 43 6.1 53 53 WSW 16 26 29.75 1007 10 16 0.00 0.00
4:53 am 04:53 Clear 60 15.6 43 6.1 53 53 SW 21 33 29.73 1007 10 16 0.00 0.00
5:53 am 05:53 Clear 59 15 43 6.1 56 56 SW 21 33 29.74 1007 10 16 0.00 0.00
6:53 am 06:53 Clear 56 13.3 43 6.1 62 62 SW 17 28 29.76 1008 10 16 0.00 0.00
7:53 am 07:53 Sunny 53 11.7 44 6.7 72 72 SW 15 24 29.76 1008 10 16 0.00 0.00
8:53 am 08:53 Sunny 59 15 46 7.8 62 62 WSW 13 20 29.75 1008 10 16 0.00 0.00
9:53 am 09:53 Sunny 67 19.4 46 7.8 47 47 WSW 15 24 29.74 1007 10 16 0.00 0.00
10:53 am 10:53 Sunny 69 20.6 47 8.3 45 45 WSW 17 28 29.73 1007 10 16 0.00 0.00
11:53 am 11:53 Sunny 73 22.8 47 8.3 40 40 SW 16 26 29.71 1006 10 16 0.00 0.00
12:53 pm 12:53 Sunny 76 24.4 47 8.3 36 36 SSW 17 28 29.69 1005 10 16 0.00 0.00
1:53 pm 13:53 Sunny 81 27.2 47 8.3 30 30 WSW 17 28 29.65 1004 10 16 0.00 0.00
2:53 pm 14:53 Sunny 81 27.2 46 7.8 29 29 SW 16 26 29.60 1002 10 16 0.00 0.00
3:53 pm 15:53 Sunny 82 27.8 45 7.2 27 27 WSW 21 33 29.57 1001 10 16 0.00 0.00
4:53 pm 16:53 Sunny 81 27.2 43 6.1 26 26 WSW 21 33 29.53 1000 10 16 0.00 0.00
5:53 pm 17:53 Sunny 78 25.6 45 7.2 31 31 SSW 3 6 29.51 999 10 16 0.00 0.00
6:53 pm 18:53 Clear 69 20.6 45 7.2 42 42 NW 7 11 29.52 1000 10 16 0.00 0.00
7:53 pm 19:53 Clear 62 16.7 45 7.2 54 54 SSW 5 7 29.54 1000 10 16 0.00 0.00
8:53 pm 20:53 Clear 60 15.6 43 6.1 53 53 SSW 8 13 29.52 1000 10 16 0.00 0.00
9:53 pm 21:53 Clear 52 11.1 43 6.1 72 72 WSW 7 11 29.52 1000 10 16 0.00 0.00
10:53 pm 22:53 Clear 61 16.1 42 5.6 50 50 SSW 10 17 29.47 998 10 16 0.00 0.00
11:53 pm 23:53 Clear 52 11.1 43 6.1 72 72 SW 10 17 29.45 997 10 16 0.00 0.00

Powered by AerisWeather